Location: Gad�tanya
(48.0500°N, 20.8500°E)
Time: 11:54:31
(UTC+00:00)

IRAS Rocket - Pass Details

Date: 05 July 2020
Orbit: 848 x 877 km, 100.1° (Epoch: 14 August)

Event Time Altitude Azimuth Distance (km) Brightness Sun altitude
Exits shadow 23:37:07 21° 151° (SSE) 1,810 5.5 -18.2°
Maximum altitude 23:40:50 73° 70° (ENE) 889 4.3 -18.0°
Drops below altitude 10° 23:46:19 10° 347° (NNW) 2,487 7.6 -17.8°
Sets 23:48:42 0° 345° (NNW) 3,429 8.4 -17.7°
